| time (UTC) | temp F | wind direction | speed knots | gust knots | rain 1hr in | rain 24hr in | rain mn in | humidity % | barometer mb |
| 20260506080454 | 40 | 311 | 1.7 | 1.7 | 0.00 | 0.00 | 0.00 | 79 | 1012.9 |
| 20260506073437 | 41 | 328 | 1.7 | 1.7 | 0.00 | 0.00 | 0.00 | 81 | 1013.0 |
| 20260506072935 | 42 | 321 | 1.7 | 2.6 | 0.00 | 0.00 | 0.00 | 80 | 1013.0 |
| 20260506072432 | 42 | 311 | 2.6 | 2.6 | 0.00 | 0.00 | 0.00 | 80 | 1012.9 |
| 20260506071930 | 42 | 322 | 2.6 | 2.6 | 0.00 | 0.00 | 0.00 | 80 | 1013.0 |
| 20260506071427 | 42 | 321 | 1.7 | 2.6 | 0.00 | 0.00 | 0.00 | 81 | 1012.9 |
| 20260506070924 | 42 | 320 | 2.6 | 2.6 | 0.00 | 0.00 | 0.00 | 82 | 1013.0 |
| 20260506070421 | 42 | 344 | 0.9 | 0.9 | 0.00 | 0.00 | 0.00 | 81 | 1013.2 |
| 20260506062358 | 43 | 277 | 1.7 | 2.6 | 0.00 | 0.00 | 0.00 | 82 | 1013.0 |
| 20260506061854 | 42 | 284 | 2.6 | 3.5 | 0.00 | 0.00 | 0.00 | 84 | 1013.0 |
| 20260506061351 | 42 | 293 | 3.5 | 3.5 | 0.00 | 0.00 | 0.00 | 85 | 1012.8 |
| 20260506060849 | 42 | 351 | 1.7 | 1.7 | 0.00 | 0.00 | 0.00 | 85 | 1012.8 |
| 20260506060347 | 42 | 299 | 4.3 | 5.2 | 0.00 | 0.00 | 0.00 | 85 | 1012.7 |
| 20260506051319 | 42 | 297 | 3.5 | 3.5 | 0.00 | 0.03 | 0.03 | 85 | 1012.9 |
| 20260506050816 | 42 | 316 | 4.3 | 5.2 | 0.00 | 0.03 | 0.03 | 85 | 1012.7 |
| 20260506050314 | 42 | 286 | 3.5 | 3.5 | 0.00 | 0.03 | 0.03 | 85 | 1012.9 |
| 20260506044804 | 42 | 301 | 6.1 | 7.8 | 0.00 | 0.03 | 0.03 | 88 | 1012.7 |
| 20260506044302 | 42 | 334 | 4.3 | 5.2 | 0.00 | 0.03 | 0.03 | 89 | 1012.4 |
| 20260506043758 | 41 | 334 | 4.3 | 5.2 | 0.00 | 0.03 | 0.03 | 90 | 1012.7 |
| 20260506043256 | 42 | 296 | 2.6 | 2.6 | 0.00 | 0.03 | 0.03 | 90 | 1012.4 |
| 20260506042755 | 42 | 339 | 2.6 | 2.6 | 0.00 | 0.03 | 0.03 | 91 | 1012.7 |
| 20260506042253 | 42 | 330 | 0.9 | 1.7 | 0.00 | 0.03 | 0.03 | 91 | 1012.7 |
| 20260506041751 | 42 | 354 | 2.6 | 3.5 | 0.05 | 0.03 | 0.03 | 91 | 1012.8 |
| 20260506041248 | 42 | 307 | 2.6 | 2.6 | 0.05 | 0.03 | 0.03 | 91 | 1012.8 |
| 20260506040745 | 42 | 343 | 1.7 | 1.7 | 0.00 | 0.02 | 0.02 | 91 | 1012.3 |
| 20260506040242 | 42 | 344 | 4.3 | 7.0 | 0.00 | 0.02 | 0.02 | 90 | 1012.7 |
| 20260506035739 | 42 | 340 | 3.5 | 7.0 | 0.07 | 0.02 | 0.02 | 90 | 1012.3 |
| 20260506035236 | 41 | 322 | 3.5 | 5.2 | 0.07 | 0.02 | 0.02 | 89 | 1012.3 |
| 20260506034733 | 42 | 317 | 7.8 | 9.6 | 0.00 | 0.01 | 0.01 | 87 | 1012.5 |
| 20260506034230 | 43 | 320 | 7.8 | 8.7 | 0.00 | 0.01 | 0.01 | 83 | 1011.9 |
| 20260506033727 | 44 | 294 | 5.2 | 7.8 | 0.00 | 0.01 | 0.01 | 81 | 1011.8 |
| 20260506033224 | 44 | 304 | 7.8 | 9.6 | 0.00 | 0.01 | 0.01 | 80 | 1011.6 |
| 20260506032721 | 44 | 318 | 4.3 | 6.1 | 0.00 | 0.01 | 0.01 | 78 | 1011.3 |
| 20260506032218 | 44 | 21 | 7.8 | 11.3 | 0.00 | 0.01 | 0.01 | 78 | 1011.8 |
| 20260506031714 | 44 | 316 | 4.3 | 7.0 | 0.00 | 0.01 | 0.01 | 78 | 1011.7 |
| 20260506031212 | 45 | 297 | 6.1 | 7.0 | 0.00 | 0.01 | 0.01 | 77 | 1011.6 |
| 20260506030710 | 45 | 318 | 6.1 | 7.8 | 0.00 | 0.01 | 0.01 | 76 | 1011.7 |
| 20260506030207 | 46 | 336 | 6.1 | 7.0 | 0.00 | 0.01 | 0.01 | 75 | 1011.6 |
| 20260506025704 | 46 | 310 | 6.1 | 7.8 | 0.00 | 0.01 | 0.01 | 73 | 1011.4 |
| 20260506025200 | 46 | 315 | 7.8 | 8.7 | 0.00 | 0.01 | 0.01 | 71 | 1011.3 |
| 20260506024657 | 46 | 297 | 8.7 | 11.3 | 0.00 | 0.01 | 0.01 | 71 | 1011.4 |
| 20260506024154 | 47 | 347 | 5.2 | 7.0 | 0.00 | 0.01 | 0.01 | 70 | 1011.3 |
| 20260506023650 | 48 | 254 | 8.7 | 11.3 | 0.00 | 0.01 | 0.01 | 70 | 1011.1 |
| 20260506023147 | 47 | 318 | 5.2 | 6.1 | 0.00 | 0.01 | 0.01 | 69 | 1010.9 |
| 20260506022644 | 47 | 335 | 1.7 | 1.7 | 0.00 | 0.01 | 0.01 | 69 | 1010.6 |
| 20260506022142 | 47 | 294 | 1.7 | 2.6 | 0.00 | 0.01 | 0.01 | 69 | 1010.8 |
| 20260506021640 | 47 | 322 | 0.9 | 1.7 | 0.00 | 0.01 | 0.01 | 68 | 1010.6 |
| 20260506021136 | 47 | 329 | 1.7 | 1.7 | 0.00 | 0.01 | 0.01 | 68 | 1010.5 |
| 20260506020633 | 47 | 304 | 0.9 | 1.7 | 0.00 | 0.01 | 0.01 | 67 | 1010.3 |
| 20260506020131 | 48 | 314 | 1.7 | 1.7 | 0.00 | 0.01 | 0.01 | 67 | 1010.3 |
| 20260506015629 | 48 | 343 | 0.9 | 0.9 | 0.00 | 0.01 | 0.01 | 66 | 1010.2 |
| 20260506015125 | 49 | 271 | 1.7 | 1.7 | 0.00 | 0.01 | 0.01 | 64 | 1010.2 |
| 20260506014623 | 50 | 263 | 1.7 | 1.7 | 0.00 | 0.01 | 0.01 | 63 | 1010.0 |
| 20260506014118 | 50 | 276 | 3.5 | 3.5 | 0.00 | 0.01 | 0.01 | 63 | 1010.1 |
| 20260506013617 | 49 | 313 | 3.5 | 3.5 | 0.00 | 0.01 | 0.01 | 63 | 1010.0 |
| 20260506013113 | 49 | 295 | 4.3 | 5.2 | 0.00 | 0.01 | 0.01 | 63 | 1009.6 |
| 20260506012609 | 49 | 296 | 5.2 | 6.1 | 0.00 | 0.01 | 0.01 | 62 | 1009.8 |
| 20260506012106 | 51 | 327 | 6.1 | 7.8 | 0.00 | 0.01 | 0.01 | 60 | 1010.1 |
| 20260506011604 | 51 | 271 | 5.2 | 6.1 | 0.00 | 0.01 | 0.01 | 58 | 1010.0 |
| 20260506011059 | 52 | 270 | 8.7 | 11.3 | 0.00 | 0.01 | 0.01 | 56 | 1010.1 |
| 20260506010554 | 52 | 274 | 3.5 | 3.5 | 0.00 | 0.01 | 0.01 | 58 | 1009.6 |
| 20260506010050 | 52 | 257 | 3.5 | 3.5 | 0.00 | 0.01 | 0.01 | 58 | 1009.5 |
| 20260506005547 | 52 | 265 | 2.6 | 3.5 | 0.00 | 0.01 | 0.01 | 58 | 1009.5 |
| 20260506005043 | 52 | 280 | 3.5 | 5.2 | 0.00 | 0.01 | 0.01 | 58 | 1010.0 |
| 20260506004540 | 52 | 295 | 5.2 | 7.8 | 0.00 | 0.01 | 0.01 | 57 | 1009.6 |
| 20260506004037 | 53 | 228 | 5.2 | 7.8 | 0.00 | 0.01 | 0.01 | 56 | 1009.6 |
| 20260506003534 | 53 | 230 | 4.3 | 6.1 | 0.00 | 0.01 | 0.01 | 56 | 1009.7 |
| 20260506003030 | 53 | 255 | 5.2 | 6.1 | 0.00 | 0.01 | 0.01 | 55 | 1009.3 |
| 20260506002526 | 54 | 290 | 2.6 | 2.6 | 0.00 | 0.01 | 0.01 | 54 | 1009.6 |
| 20260506002022 | 53 | 256 | 3.5 | 3.5 | 0.00 | 0.01 | 0.01 | 55 | 1009.6 |
| 20260506001518 | 54 | 254 | 5.2 | 7.0 | 0.00 | 0.01 | 0.01 | 53 | 1009.6 |
| 20260506001016 | 56 | 241 | 3.5 | 3.5 | 0.00 | 0.01 | 0.01 | 50 | 1009.7 |
| 20260506000513 | 56 | 315 | 7.8 | 11.3 | 0.00 | 0.01 | 0.01 | 48 | 1009.3 |
| 20260506000010 | 57 | 259 | 7.8 | 13.9 | 0.00 | 0.01 | 0.01 | 48 | 1009.3 |
| 20260505235508 | 56 | 287 | 6.1 | 7.8 | 0.00 | 0.01 | 0.01 | 50 | 1009.3 |
| 20260505235004 | 57 | 262 | 5.2 | 6.1 | 0.00 | 0.01 | 0.01 | 49 | 1009.6 |
| 20260505234502 | 57 | 310 | 7.8 | 9.6 | 0.00 | 0.01 | 0.01 | 48 | 1009.5 |
| 20260505233958 | 58 | 261 | 5.2 | 7.0 | 0.00 | 0.01 | 0.01 | 46 | 1009.5 |
| 20260505233456 | 58 | 230 | 7.0 | 9.6 | 0.00 | 0.01 | 0.01 | 47 | 1009.3 |
| 20260505232953 | 58 | 262 | 5.2 | 7.0 | 0.00 | 0.01 | 0.01 | 47 | 1009.5 |
| 20260505232451 | 57 | 241 | 5.2 | 6.1 | 0.00 | 0.01 | 0.01 | 50 | 1009.6 |
| 20260505231948 | 55 | 229 | 5.2 | 6.1 | 0.00 | 0.01 | 0.01 | 57 | 1009.3 |
| 20260505231445 | 56 | 295 | 4.3 | 5.2 | 0.00 | 0.01 | 0.01 | 56 | 1009.3 |
| 20260505230944 | 56 | 248 | 4.3 | 5.2 | 0.00 | 0.01 | 0.01 | 54 | 1009.6 |
| 20260505230441 | 56 | 275 | 6.1 | 8.7 | 0.00 | 0.01 | 0.01 | 54 | 1009.5 |
| 20260505225937 | 55 | 242 | 3.5 | 5.2 | 0.00 | 0.01 | 0.01 | 58 | 1009.3 |
| 20260505225434 | 54 | 301 | 5.2 | 7.0 | 0.00 | 0.01 | 0.01 | 59 | 1009.6 |
| 20260505224930 | 53 | 272 | 7.0 | 8.7 | 0.00 | 0.01 | 0.01 | 62 | 1009.6 |
| 20260505224427 | 54 | 260 | 5.2 | 5.2 | 0.00 | 0.01 | 0.01 | 60 | 1009.6 |
| 20260505223924 | 53 | 277 | 7.0 | 7.0 | 0.00 | 0.01 | 0.01 | 64 | 1009.8 |
| 20260505223421 | 53 | 283 | 4.3 | 5.2 | 0.00 | 0.01 | 0.01 | 64 | 1010.3 |
| 20260505222918 | 52 | 292 | 6.1 | 7.0 | 0.00 | 0.01 | 0.01 | 64 | 1010.3 |
| 20260505222414 | 52 | 225 | 7.8 | 8.7 | 0.00 | 0.01 | 0.01 | 59 | 1010.2 |
| 20260505221910 | 54 | 190 | 12.2 | 15.6 | 0.00 | 0.01 | 0.01 | 56 | 1010.0 |
| 20260505221408 | 53 | 290 | 6.1 | 7.8 | 0.00 | 0.01 | 0.01 | 60 | 1010.2 |
| 20260505220904 | 54 | 261 | 9.6 | 11.3 | 0.00 | 0.01 | 0.01 | 57 | 1010.1 |
| 20260505220401 | 54 | 303 | 5.2 | 7.0 | 0.00 | 0.01 | 0.01 | 57 | 1010.1 |
| 20260505215859 | 54 | 252 | 9.6 | 11.3 | 0.00 | 0.01 | 0.01 | 56 | 1010.1 |
| 20260505215357 | 55 | 273 | 8.7 | 11.3 | 0.00 | 0.01 | 0.01 | 58 | 1010.1 |
| 20260505214855 | 56 | 288 | 7.0 | 8.7 | 0.00 | 0.01 | 0.01 | 57 | 1010.1 |
| 20260505214352 | 57 | 230 | 6.1 | 7.8 | 0.00 | 0.01 | 0.01 | 55 | 1009.8 |
| 20260505213849 | 57 | 225 | 7.0 | 9.6 | 0.00 | 0.01 | 0.01 | 55 | 1010.0 |
| 20260505213347 | 56 | 237 | 5.2 | 7.0 | 0.00 | 0.01 | 0.01 | 56 | 1010.2 |
| 20260505212842 | 56 | 228 | 11.3 | 13.0 | 0.00 | 0.01 | 0.01 | 58 | 1010.5 |
| 20260505212340 | 58 | 268 | 10.4 | 13.9 | 0.00 | 0.01 | 0.01 | 54 | 1010.3 |
| 20260505211836 | 58 | 245 | 7.0 | 9.6 | 0.00 | 0.01 | 0.01 | 54 | 1010.3 |
| 20260505211334 | 55 | 187 | 7.8 | 8.7 | 0.00 | 0.01 | 0.01 | 57 | 1010.2 |
| 20260505210830 | 55 | 249 | 7.0 | 8.7 | 0.00 | 0.01 | 0.01 | 58 | 1010.3 |
| 20260505210327 | 55 | 246 | 7.0 | 7.8 | 0.00 | 0.01 | 0.01 | 58 | 1010.0 |
| 20260505205824 | 55 | 262 | 6.1 | 8.7 | 0.00 | 0.01 | 0.01 | 60 | 1010.3 |
| 20260505205322 | 57 | 271 | 6.1 | 9.6 | 0.00 | 0.01 | 0.01 | 58 | 1010.3 |
| 20260505204818 | 54 | 211 | 3.5 | 5.2 | 0.00 | 0.01 | 0.01 | 62 | 1010.8 |
| 20260505204317 | 53 | 289 | 3.5 | 3.5 | 0.00 | 0.01 | 0.01 | 65 | 1010.8 |
| 20260505203814 | 54 | 276 | 7.8 | 9.6 | 0.00 | 0.01 | 0.01 | 63 | 1010.8 |
| 20260505203310 | 55 | 267 | 5.2 | 7.8 | 0.00 | 0.01 | 0.01 | 61 | 1010.8 |
| 20260505202806 | 55 | 313 | 5.2 | 7.0 | 0.00 | 0.01 | 0.01 | 61 | 1011.1 |
| 20260505202306 | 55 | 218 | 6.1 | 7.8 | 0.00 | 0.01 | 0.01 | 61 | 1010.9 |
| 20260505201759 | 55 | 156 | 3.5 | 7.0 | 0.00 | 0.01 | 0.01 | 63 | 1010.7 |
| 20260505201257 | 56 | 262 | 5.2 | 7.8 | 0.00 | 0.01 | 0.01 | 59 | 1010.8 |
| 20260505200755 | 55 | 125 | 6.1 | 9.6 | 0.00 | 0.01 | 0.01 | 63 | 1010.6 |
| 20260505200252 | 58 | 246 | 6.1 | 9.6 | 0.00 | 0.01 | 0.01 | 59 | 1010.8 |
| 20260505195747 | 57 | 272 | 6.1 | 7.8 | 0.00 | 0.01 | 0.01 | 62 | 1010.8 |
| 20260505195245 | 55 | 230 | 7.8 | 8.7 | 0.00 | 0.01 | 0.01 | 64 | 1010.7 |
| 20260505194742 | 54 | 250 | 7.0 | 8.7 | 0.00 | 0.01 | 0.01 | 64 | 1010.8 |
| 20260505194238 | 55 | 232 | 7.8 | 7.8 | 0.00 | 0.01 | 0.01 | 67 | 1010.6 |
| 20260505193734 | 53 | 280 | 7.0 | 8.7 | 0.00 | 0.01 | 0.01 | 74 | 1010.9 |
| 20260505193232 | 52 | 264 | 5.2 | 7.0 | 0.00 | 0.01 | 0.01 | 80 | 1010.8 |
| 20260505192730 | 52 | 290 | 4.3 | 7.8 | 0.00 | 0.01 | 0.01 | 86 | 1010.9 |
| 20260505192228 | 50 | 239 | 3.5 | 5.2 | 0.00 | 0.01 | 0.01 | 89 | 1011.1 |
| 20260505191725 | 50 | 235 | 4.3 | 6.1 | 0.05 | 0.01 | 0.01 | 91 | 1010.9 |
| 20260505191224 | 48 | 217 | 2.6 | 3.5 | 0.05 | 0.01 | 0.01 | 90 | 1011.1 |
| 20260505190720 | 49 | 234 | 8.7 | 9.6 | 0.00 | 0.00 | 0.00 | 83 | 1011.3 |
| 20260505190219 | 52 | 152 | 7.0 | 7.8 | 0.00 | 0.00 | 0.00 | 74 | 1010.9 |
| 20260505185716 | 53 | 218 | 5.2 | 7.0 | 0.00 | 0.00 | 0.00 | 60 | 1011.1 |
| 20260505185213 | 55 | 257 | 9.6 | 12.2 | 0.00 | 0.00 | 0.00 | 57 | 1010.8 |
| 20260505184709 | 57 | 231 | 7.0 | 9.6 | 0.00 | 0.00 | 0.00 | 55 | 1010.8 |
| 20260505184207 | 56 | 212 | 7.0 | 9.6 | 0.00 | 0.00 | 0.00 | 52 | 1010.6 |
| 20260505183703 | 57 | 254 | 5.2 | 7.0 | 0.00 | 0.00 | 0.00 | 54 | 1010.8 |
| 20260505183200 | 56 | 251 | 7.8 | 9.6 | 0.00 | 0.00 | 0.00 | 53 | 1010.8 |
| 20260505182656 | 57 | 214 | 4.3 | 5.2 | 0.00 | 0.00 | 0.00 | 55 | 1010.8 |
| 20260505182154 | 56 | 252 | 7.0 | 7.8 | 0.00 | 0.00 | 0.00 | 55 | 1011.1 |
| 20260505181650 | 56 | 222 | 5.2 | 7.0 | 0.00 | 0.00 | 0.00 | 55 | 1011.2 |
| 20260505181148 | 56 | 209 | 3.5 | 5.2 | 0.00 | 0.00 | 0.00 | 55 | 1011.1 |
| 20260505180643 | 56 | 237 | 4.3 | 6.1 | 0.00 | 0.00 | 0.00 | 54 | 1010.9 |
| 20260505180141 | 57 | 229 | 5.2 | 6.1 | 0.00 | 0.00 | 0.00 | 52 | 1010.9 |
| 20260505175637 | 55 | 133 | 2.6 | 2.6 | 0.00 | 0.00 | 0.00 | 54 | 1010.9 |
| 20260505175133 | 55 | 247 | 2.6 | 3.5 | 0.00 | 0.00 | 0.00 | 55 | 1011.1 |
| 20260505174630 | 56 | 225 | 2.6 | 3.5 | 0.00 | 0.00 | 0.00 | 53 | 1011.1 |
| 20260505174126 | 56 | 162 | 5.2 | 7.0 | 0.00 | 0.00 | 0.00 | 53 | 1011.2 |
| 20260505173623 | 55 | 280 | 2.6 | 2.6 | 0.00 | 0.00 | 0.00 | 54 | 1011.3 |
| 20260505173120 | 55 | 250 | 1.7 | 1.7 | 0.00 | 0.00 | 0.00 | 55 | 1011.1 |
| 20260505172618 | 55 | 253 | 3.5 | 3.5 | 0.00 | 0.00 | 0.00 | 55 | 1011.3 |
| 20260505172114 | 55 | 241 | 7.8 | 7.8 | 0.00 | 0.00 | 0.00 | 54 | 1011.4 |
| 20260505171609 | 55 | 255 | 4.3 | 6.1 | 0.00 | 0.00 | 0.00 | 54 | 1011.6 |
| 20260505171106 | 53 | 151 | 1.7 | 1.7 | 0.00 | 0.00 | 0.00 | 57 | 1011.4 |
| 20260505170603 | 53 | 32 | 0.0 | 0.0 | 0.00 | 0.00 | 0.00 | 56 | 1011.4 |
| 20260505170059 | 53 | 196 | 0.9 | 0.9 | 0.00 | 0.00 | 0.00 | 56 | 1011.6 |
| 20260505165554 | 52 | 315 | 3.5 | 3.5 | 0.00 | 0.00 | 0.00 | 58 | 1011.4 |
| 20260505165051 | 52 | 10 | 0.9 | 1.7 | 0.00 | 0.00 | 0.00 | 59 | 1011.4 |
| 20260505164546 | 52 | 299 | 3.5 | 3.5 | 0.00 | 0.00 | 0.00 | 57 | 1011.3 |
| 20260505164044 | 51 | 273 | 1.7 | 1.7 | 0.00 | 0.00 | 0.00 | 59 | 1011.6 |
| 20260505163543 | 50 | 316 | 3.5 | 3.5 | 0.00 | 0.00 | 0.00 | 60 | 1011.7 |
| 20260505163040 | 49 | 322 | 3.5 | 5.2 | 0.00 | 0.00 | 0.00 | 62 | 1011.7 |
| 20260505162538 | 50 | 349 | 5.2 | 7.0 | 0.00 | 0.00 | 0.00 | 61 | 1011.8 |
| 20260505162035 | 50 | 321 | 7.0 | 7.8 | 0.00 | 0.00 | 0.00 | 60 | 1011.7 |
| 20260505161532 | 50 | 323 | 2.6 | 3.5 | 0.00 | 0.00 | 0.00 | 61 | 1012.3 |
| 20260505161029 | 49 | 326 | 3.5 | 5.2 | 0.00 | 0.00 | 0.00 | 61 | 1011.8 |
| 20260505160527 | 49 | 325 | 4.3 | 6.1 | 0.00 | 0.00 | 0.00 | 60 | 1012.1 |
| 20260505153003 | 50 | 3 | 3.5 | 5.2 | 0.00 | 0.00 | 0.00 | 59 | 1012.2 |
| 20260505152501 | 50 | 310 | 4.3 | 7.0 | 0.00 | 0.00 | 0.00 | 60 | 1012.1 |
| 20260505151956 | 49 | 334 | 4.3 | 6.1 | 0.00 | 0.00 | 0.00 | 59 | 1011.9 |
| 20260505151451 | 49 | 310 | 3.5 | 5.2 | 0.00 | 0.00 | 0.00 | 61 | 1012.1 |
| 20260505150949 | 48 | 287 | 3.5 | 6.1 | 0.00 | 0.00 | 0.00 | 62 | 1012.3 |
| 20260505150445 | 48 | 330 | 4.3 | 6.1 | 0.00 | 0.00 | 0.00 | 62 | 1012.1 |
| 20260505140415 | 51 | 305 | 4.3 | 5.2 | 0.00 | 0.00 | 0.00 | 51 | 1012.4 |
| 20260505124829 | 49 | 290 | 3.5 | 5.2 | 0.00 | 0.00 | 0.00 | 53 | 1011.7 |
| 20260505124326 | 49 | 250 | 2.6 | 2.6 | 0.00 | 0.00 | 0.00 | 52 | 1011.8 |
| 20260505123822 | 49 | 261 | 2.6 | 3.5 | 0.00 | 0.00 | 0.00 | 51 | 1011.7 |
| 20260505123319 | 48 | 274 | 2.6 | 2.6 | 0.00 | 0.00 | 0.00 | 50 | 1011.9 |
| 20260505122815 | 48 | 223 | 3.5 | 5.2 | 0.00 | 0.00 | 0.00 | 50 | 1011.9 |
| 20260505122312 | 48 | 252 | 2.6 | 2.6 | 0.00 | 0.00 | 0.00 | 50 | 1011.9 |
| 20260505121809 | 48 | 224 | 1.7 | 1.7 | 0.00 | 0.00 | 0.00 | 49 | 1011.6 |
| 20260505121306 | 49 | 319 | 0.9 | 0.9 | 0.00 | 0.00 | 0.00 | 48 | 1011.9 |
| 20260505120802 | 49 | 295 | 2.6 | 3.5 | 0.00 | 0.00 | 0.00 | 48 | 1011.7 |
| 20260505120258 | 49 | 259 | 2.6 | 2.6 | 0.00 | 0.00 | 0.00 | 47 | 1011.6 |
| 20260505115757 | 48 | 325 | 1.7 | 1.7 | 0.00 | 0.00 | 0.00 | 47 | 1011.7 |
| 20260505115254 | 49 | 307 | 0.0 | 0.9 | 0.00 | 0.00 | 0.00 | 47 | 1011.4 |
| 20260505114752 | 49 | 271 | 1.7 | 1.7 | 0.00 | 0.00 | 0.00 | 46 | 1011.3 |
| 20260505114248 | 49 | 234 | 2.6 | 3.5 | 0.00 | 0.00 | 0.00 | 45 | 1011.4 |
| 20260505113745 | 48 | 49 | 1.7 | 1.7 | 0.00 | 0.00 | 0.00 | 46 | 1011.6 |
| 20260505113241 | 48 | 356 | 0.0 | 0.0 | 0.00 | 0.00 | 0.00 | 47 | 1011.3 |
| 20260505112737 | 48 | 352 | 0.0 | 0.0 | 0.00 | 0.00 | 0.00 | 46 | 1011.4 |
| 20260505112235 | 49 | 351 | 0.0 | 0.0 | 0.00 | 0.00 | 0.00 | 45 | 1011.9 |
| 20260505111735 | 49 | 5 | 0.0 | 0.0 | 0.00 | 0.00 | 0.00 | 42 | 1011.7 |
| 20260505111231 | 50 | 358 | 0.0 | 0.0 | 0.00 | 0.00 | 0.00 | 42 | 1011.8 |
| 20260505110727 | 50 | 350 | 0.0 | 0.0 | 0.00 | 0.00 | 0.00 | 41 | 1011.8 |
| 20260505110225 | 50 | 342 | 0.9 | 0.9 | 0.00 | 0.00 | 0.00 | 40 | 1011.7 |
| 20260505102200 | 52 | 354 | 0.0 | 0.0 | 0.00 | 0.00 | 0.00 | 36 | 1011.2 |
| 20260505101659 | 52 | 10 | 0.0 | 0.0 | 0.00 | 0.00 | 0.00 | 35 | 1011.6 |
| 20260505101154 | 52 | 114 | 1.7 | 1.7 | 0.00 | 0.00 | 0.00 | 33 | 1011.4 |
| 20260505100651 | 53 | 165 | 2.6 | 3.5 | 0.00 | 0.00 | 0.00 | 32 | 1011.6 |
| 20260505100148 | 54 | 39 | 0.9 | 0.9 | 0.00 | 0.00 | 0.00 | 29 | 1011.3 |
| 20260505095644 | 55 | 116 | 3.5 | 3.5 | 0.00 | 0.00 | 0.00 | 24 | 1010.9 |
| 20260505095142 | 54 | 210 | 5.2 | 7.8 | 0.00 | 0.00 | 0.00 | 24 | 1010.8 |
| 20260505094637 | 54 | 280 | 3.5 | 5.2 | 0.00 | 0.00 | 0.00 | 26 | 1011.1 |
| 20260505094134 | 53 | 325 | 4.3 | 6.1 | 0.00 | 0.00 | 0.00 | 27 | 1011.1 |
| 20260505093630 | 53 | 297 | 3.5 | 3.5 | 0.00 | 0.00 | 0.00 | 31 | 1011.3 |
| 20260505093127 | 53 | 307 | 1.7 | 2.6 | 0.00 | 0.00 | 0.00 | 33 | 1011.3 |
| 20260505092624 | 54 | 321 | 4.3 | 6.1 | 0.00 | 0.00 | 0.00 | 32 | 1011.3 |
| 20260505092123 | 53 | 265 | 7.8 | 11.3 | 0.00 | 0.00 | 0.00 | 35 | 1010.9 |
| 20260505091619 | 53 | 256 | 7.0 | 8.7 | 0.00 | 0.00 | 0.00 | 40 | 1011.2 |
| 20260505091118 | 53 | 238 | 4.3 | 5.2 | 0.00 | 0.00 | 0.00 | 40 | 1011.2 |
| 20260505090615 | 53 | 261 | 12.2 | 15.6 | 0.00 | 0.00 | 0.00 | 39 | 1011.3 |
| 20260505090113 | 54 | 258 | 3.5 | 6.1 | 0.00 | 0.00 | 0.00 | 39 | 1010.9 |
| 20260505085610 | 55 | 299 | 7.0 | 8.7 | 0.00 | 0.00 | 0.00 | 38 | 1010.8 |
| 20260505085109 | 54 | 273 | 6.1 | 7.8 | 0.00 | 0.00 | 0.00 | 39 | 1011.2 |
| 20260505084606 | 54 | 239 | 6.1 | 7.0 | 0.00 | 0.00 | 0.00 | 39 | 1011.1 |
| 20260505084104 | 54 | 208 | 7.8 | 8.7 | 0.00 | 0.00 | 0.00 | 40 | 1011.7 |
| 20260505083601 | 54 | 279 | 7.8 | 8.7 | 0.00 | 0.00 | 0.00 | 40 | 1011.3 |
| 20260505083058 | 54 | 277 | 5.2 | 7.8 | 0.00 | 0.00 | 0.00 | 40 | 1011.6 |
| 20260505082553 | 54 | 274 | 7.0 | 11.3 | 0.00 | 0.00 | 0.00 | 40 | 1011.3 |
| 20260505082051 | 55 | 279 | 8.7 | 11.3 | 0.00 | 0.00 | 0.00 | 39 | 1011.7 |
| 20260505081547 | 55 | 319 | 5.2 | 6.1 | 0.00 | 0.00 | 0.00 | 39 | 1011.6 |
| 20260505081044 | 55 | 256 | 6.1 | 7.8 | 0.00 | 0.00 | 0.00 | 39 | 1011.7 |